Date String (YYYY-MM-DD hh:mm:ss) UTC,Instrument flags,absolute air pressure of the measurement (hPa),sample flow rate (lpm),inlet stack bypass flow (lpm),air temperature of the measurement (°C),ambient temperature measured by the external sensor (°C),aerosol sample conditioner tube jacket temperature (°C),OPC LED temperature (°C),internal box temperature (°C),relative humidity of the measurement (%),span deviation,mass concentration of particles derived from Lorenz-Mie calculation of OPC scattering (μg/m³),mass concentration of particles derived from Lorenz-Mie calculation of OPC scattering (μg/m³),mass concentration of particles derived from Lorenz-Mie calculation of OPC scattering (μg/m³)
DateTimeUTC,F1_M11,P_M11,Q1_M11,Q2_M11,T1_M11,T2_M11,T3_M11,T4_M11,T5_M11,U1_M11,ZSPAN_M11,X2_M11,X0_M11,X1_M11
2024-06-01 15:00:00,SystemResetWarning,0829.3,5.00,000.00,031.1,030.4,000.0,039.4,032.7,020.2,0000.0,0005.14,0017.34,0003.31
2024-06-01 15:01:00,SystemResetWarning,0829.4,5.00,000.00,031.1,030.4,000.0,039.4,032.7,020.3,0000.0,0005.09,0016.88,0003.32
2024-06-01 15:02:00,SystemResetWarning,0829.4,5.00,000.00,031.1,030.4,000.0,039.4,032.7,021.2,0000.0,0005.06,0017.09,0003.33
2024-06-01 15:03:00,SystemResetWarning,0829.4,4.99,000.00,031.1,030.4,000.0,039.4,032.7,021.3,0000.0,0004.95,0017.06,0003.33
2024-06-01 15:04:00,SystemResetWarning,0829.3,4.99,000.00,031.1,030.4,000.0,039.5,032.8,021.6,0000.0,0004.94,0018.12,0003.34
2024-06-01 15:05:00,SystemResetWarning,0829.3,5.01,000.00,031.1,030.4,000.0,039.5,032.7,020.6,0000.0,0004.93,0019.18,0003.35
2024-06-01 15:06:00,SystemResetWarning,0829.3,5.01,000.00,031.1,030.4,000.0,039.5,032.7,019.7,0000.0,0004.88,0019.22,0003.34
2024-06-01 15:07:00,SystemResetWarning,0829.3,5.00,000.00,031.2,030.5,000.0,039.5,032.8,019.8,0000.0,0004.80,0018.94,0003.32
2024-06-01 15:08:00,SystemResetWarning,0829.3,4.99,000.00,031.2,030.5,000.0,039.5,032.8,019.4,0000.0,0004.69,0018.09,0003.32
2024-06-01 15:09:00,SystemResetWarning,0829.3,4.99,000.00,031.2,030.5,000.0,039.5,032.8,019.8,0000.0,0004.61,0016.80,0003.32
2024-06-01 15:10:00,SystemResetWarning,0829.3,5.01,000.00,031.2,030.5,000.0,039.5,032.8,020.1,0000.0,0004.58,0017.34,0003.32
2024-06-01 15:11:00,SystemResetWarning,0829.3,5.01,000.00,031.2,030.6,000.0,039.5,032.9,017.7,0000.0,0004.51,0017.00,0003.33
2024-06-01 15:12:00,SystemResetWarning,0829.2,4.99,000.00,031.2,029.8,000.0,039.6,032.4,020.5,0000.0,0004.44,0017.12,0003.33
2024-06-01 15:13:00,SystemResetWarning,0829.1,5.00,000.00,030.8,027.3,000.0,039.6,031.3,020.9,0000.0,0004.38,0016.38,0003.34
2024-06-01 15:14:00,SystemResetWarning,0829.1,5.01,000.00,030.3,026.3,000.0,039.5,030.7,021.7,0000.0,0004.34,0015.89,0003.35
2024-06-01 15:15:00,SystemResetWarning,0829.1,5.02,000.00,030.1,026.8,000.0,039.4,030.8,022.7,0000.0,0004.27,0014.72,0003.36
2024-06-01 15:16:00,SystemResetWarning,0829.1,5.00,000.00,030.0,027.2,000.0,039.2,031.0,022.3,0000.0,0004.24,0013.09,0003.37
2024-06-01 15:17:00,SystemResetWarning,0829.1,5.01,000.00,030.0,027.7,000.0,039.1,031.2,021.7,0000.0,0004.20,0012.76,0003.40
2024-06-01 15:18:00,SystemResetWarning,0829.1,5.00,000.00,030.0,028.0,000.0,039.0,031.4,021.3,0000.0,0004.22,0013.30,0003.42
2024-06-01 15:19:00,SystemResetWarning,0829.1,5.00,000.00,030.1,028.4,000.0,038.9,031.5,021.2,0000.0,0004.23,0013.23,0003.44
2024-06-01 15:20:00,SystemResetWarning,0829.1,5.00,000.00,030.1,028.6,000.0,038.8,031.6,022.5,0000.0,0004.23,0014.65,0003.45
2024-06-01 15:21:00,SystemResetWarning,0829.1,5.00,000.00,030.1,028.8,000.0,038.8,031.7,021.4,0000.0,0004.25,0014.28,0003.48
2024-06-01 15:22:00,SystemResetWarning,0829.1,5.00,000.00,030.1,029.0,000.0,038.8,031.8,023.2,0000.0,0004.25,0014.80,0003.48
2024-06-01 15:23:00,SystemResetWarning,0829.1,5.00,000.00,030.2,029.2,000.0,038.7,031.8,023.6,0000.0,0004.32,0014.19,0003.52
2024-06-01 15:24:00,SystemResetWarning,0829.1,5.00,000.00,030.2,029.3,000.0,038.7,031.9,022.9,0000.0,0004.40,0014.08,0003.55
2024-06-01 15:25:00,SystemResetWarning,0829.2,5.00,000.00,030.2,029.4,000.0,038.7,031.9,021.7,0000.0,0004.40,0013.69,0003.57
2024-06-01 15:26:00,SystemResetWarning,0829.2,5.00,000.00,030.3,029.5,000.0,038.7,032.0,021.6,0000.0,0004.36,0013.22,0003.58
2024-06-01 15:27:00,SystemResetWarning,0829.2,5.00,000.00,030.3,029.6,000.0,038.7,032.0,022.0,0000.0,0004.38,0013.03,0003.58
2024-06-01 15:28:00,SystemResetWarning,0829.2,5.00,000.00,030.4,029.7,000.0,038.7,032.0,021.7,0000.0,0004.42,0013.32,0003.59
2024-06-01 15:29:00,SystemResetWarning,0829.2,5.00,000.00,030.4,029.7,000.0,038.7,032.1,021.6,0000.0,0004.41,0012.58,0003.60
2024-06-01 15:30:00,SystemResetWarning,0829.2,5.00,000.00,030.4,029.8,000.0,038.7,032.1,022.8,0000.0,0004.39,0013.19,0003.61
2024-06-01 15:31:00,SystemResetWarning,0829.1,5.00,000.00,030.5,029.8,000.0,038.7,032.2,023.0,0000.0,0004.41,0012.80,0003.63
2024-06-01 15:32:00,SystemResetWarning,0829.2,5.00,000.00,030.5,029.9,000.0,038.8,032.2,022.2,0000.0,0004.42,0012.52,0003.65
2024-06-01 15:33:00,SystemResetWarning,0829.1,4.99,000.00,030.5,029.9,000.0,038.8,032.2,022.0,0000.0,0004.44,0012.27,0003.67
2024-06-01 15:34:00,SystemResetWarning,0829.1,5.01,000.00,030.6,030.0,000.0,038.8,032.3,022.5,0000.0,0004.43,0012.40,0003.68
2024-06-01 15:35:00,SystemResetWarning,0829.1,5.00,000.00,030.6,030.0,000.0,038.8,032.3,021.8,0000.0,0004.37,0011.83,0003.68
2024-06-01 15:36:00,SystemResetWarning,0829.1,4.99,000.00,030.6,030.0,000.0,038.8,032.3,022.3,0000.0,0004.39,0011.81,0003.69
2024-06-01 15:37:00,SystemResetWarning,0829.1,4.99,000.00,030.7,030.1,000.0,038.9,032.3,022.4,0000.0,0004.48,0013.01,0003.71
2024-06-01 15:38:00,SystemResetWarning,0829.1,4.99,000.00,030.7,030.1,000.0,038.9,032.4,022.6,0000.0,0004.49,0013.20,0003.73
2024-06-01 15:39:00,SystemResetWarning,0829.1,5.01,000.00,030.7,030.1,000.0,038.9,032.4,022.0,0000.0,0004.51,0013.68,0003.74
2024-06-01 15:40:00,SystemResetWarning,0829.1,5.01,000.00,030.7,030.2,000.0,038.9,032.4,021.8,0000.0,0004.56,0015.34,0003.75
2024-06-01 15:41:00,SystemResetWarning,0829.1,5.00,000.00,030.8,030.1,000.0,039.0,032.4,021.6,0000.0,0004.60,0015.66,0003.77
2024-06-01 15:42:00,SystemResetWarning,0829.0,4.97,000.00,030.6,028.7,000.0,039.1,031.7,021.6,0000.0,0004.63,0015.78,0003.77
2024-06-01 15:43:00,SystemResetWarning,0829.0,5.01,000.00,030.2,026.8,000.0,039.1,030.8,022.3,0000.0,0004.63,0015.80,0003.77
2024-06-01 15:44:00,SystemResetWarning,0829.0,5.01,000.00,030.0,026.9,000.0,039.0,030.8,022.7,0000.0,0004.65,0016.55,0003.78
2024-06-01 15:45:00,SystemResetWarning,0828.9,4.98,000.00,029.9,027.3,000.0,038.9,030.9,022.6,0000.0,0004.66,0016.77,0003.80
2024-06-01 15:46:00,SystemResetWarning,0829.0,5.00,000.00,029.9,027.7,000.0,038.7,031.1,022.1,0000.0,0004.66,0018.03,0003.79
2024-06-01 15:47:00,SystemResetWarning,0829.0,5.02,000.00,029.9,028.1,000.0,038.7,031.3,021.6,0000.0,0004.66,0018.87,0003.78
2024-06-01 15:48:00,SystemResetWarning,0829.0,5.00,000.00,029.9,028.4,000.0,038.6,031.4,021.4,0000.0,0004.63,0018.01,0003.78
2024-06-01 15:49:00,SystemResetWarning,0829.0,4.99,000.00,029.9,028.6,000.0,038.6,031.5,021.4,0000.0,0004.67,0017.95,0003.78
2024-06-01 15:50:00,SystemResetWarning,0829.0,4.99,000.00,030.0,028.8,000.0,038.5,031.6,022.2,0000.0,0004.67,0017.71,0003.79
2024-06-01 15:51:00,SystemResetWarning,0829.0,5.00,000.00,030.0,029.0,000.0,038.5,031.7,022.3,0000.0,0004.69,0016.31,0003.81
2024-06-01 15:52:00,SystemResetWarning,0829.0,5.01,000.00,030.1,029.1,000.0,038.5,031.7,022.9,0000.0,0004.73,0015.07,0003.85
2024-06-01 15:53:00,SystemResetWarning,0829.0,5.01,000.00,030.1,029.3,000.0,038.5,031.7,022.8,0000.0,0004.81,0014.43,0003.88
2024-06-01 15:54:00,SystemResetWarning,0829.0,5.00,000.00,030.1,029.4,000.0,038.5,031.8,021.6,0000.0,0004.84,0013.99,0003.90
2024-06-01 15:55:00,SystemResetWarning,0829.0,5.00,000.00,030.2,029.5,000.0,038.5,031.9,022.0,0000.0,0004.83,0013.08,0003.92
2024-06-01 15:56:00,SystemResetWarning,0829.0,5.00,000.00,030.2,029.6,000.0,038.5,031.9,023.2,0000.0,0004.85,0013.33,0003.92
2024-06-01 15:57:00,SystemResetWarning,0828.9,5.00,000.00,030.3,029.6,000.0,038.5,032.0,023.9,0000.0,0004.93,0012.67,0003.95
2024-06-01 15:58:00,SystemResetWarning,0829.0,5.00,000.00,030.3,029.7,000.0,038.5,032.0,023.0,0000.0,0004.99,0012.21,0003.99
2024-06-01 15:59:00,SystemResetWarning,0829.0,4.99,000.00,030.3,029.8,000.0,038.6,032.1,023.4,0000.0,0005.00,0012.78,0004.02
